This is the latest recevied weather packets stored in our database for station/object N9WHM. If no packets are shown the sender has not sent any weather packets the latest 10 day(s).
| Time | Temp. | Humidity | Pressure | Rain* | Wind** | Luminosity | Snow |
|---|---|---|---|---|---|---|---|
| 1777617634 | 6.11° C | 64% | 1018.2 hPa | 0 mm | - | 0 W/m² | - |
| 1777617330 | 6.11° C | 62% | 1018.2 hPa | 0 mm | - | 0 W/m² | - |
| 1777617028 | 6.67° C | 61% | 1018.2 hPa | 0 mm | - | 0 W/m² | - |
| 1777616727 | 6.67° C | 61% | 1018.2 hPa | 0 mm | - | 0 W/m² | - |
| 1777616422 | 6.67° C | 60% | 1018.1 hPa | 0 mm | - | 0 W/m² | - |
| 1777616119 | 6.67° C | 60% | 1017.9 hPa | 0 mm | - | 0 W/m² | - |
| 1777615817 | 6.67° C | 60% | 1018.2 hPa | 0 mm | - | 0 W/m² | - |
| 1777615514 | 6.67° C | 61% | 1018.4 hPa | 0 mm | - | 0 W/m² | - |
| 1777615209 | 6.67° C | 61% | 1018.2 hPa | 0 mm | - | 0 W/m² | - |
| 1777614904 | 6.67° C | 62% | 1018.4 hPa | 0 mm | - | 0 W/m² | - |
| 1777614601 | 6.67° C | 60% | 1018.3 hPa | 0 mm | - | 0 W/m² | - |
| 1777614296 | 6.67° C | 60% | 1018 hPa | 0 mm | - | 0 W/m² | - |
| 1777613991 | 6.67° C | 60% | 1017.6 hPa | 0 mm | - | 0 W/m² | - |
| 1777613687 | 6.67° C | 58% | 1018 hPa | 0 mm | - | 0 W/m² | - |
| 1777613385 | 6.11° C | 59% | 1018 hPa | 0 mm | - | 0 W/m² | - |
| 1777613081 | 6.11° C | 60% | 1017.9 hPa | 0 mm | - | 0 W/m² | - |
| 1777612777 | 6.11° C | 61% | 1017.9 hPa | 0 mm | - | 0 W/m² | - |
| 1777612473 | 6.11° C | 65% | 1018 hPa | 0 mm | - | 0 W/m² | - |
| 1777612169 | 6.67° C | 62% | 1017.9 hPa | 0 mm | - | 0 W/m² | - |
| 1777611864 | 7.22° C | 58% | 1018.1 hPa | 0 mm | - | 0 W/m² | - |
| 1777611560 | 7.22° C | 56% | 1018 hPa | 0 mm | - | 0 W/m² | - |
| 1777611257 | 7.22° C | 57% | 1018 hPa | 0 mm | - | 0 W/m² | - |
| 1777610954 | 7.22° C | 57% | 1018 hPa | 0 mm | - | 0 W/m² | - |
| 1777610648 | 7.78° C | 56% | 1018.2 hPa | 0 mm | - | 0 W/m² | - |
| 1777610343 | 7.22° C | 55% | 1018.2 hPa | 0 mm | - | 0 W/m² | - |
* Rain latest hour (hover to see other rain measurements)
** Current wind speed in m/s (hover to see current wind gust speed)